Time,TemperatureF,DewpointF,PressureIn,WindDirection,WindDirectionDegrees,WindSpeedMPH,WindSpeedGustMPH,Humidity,HourlyPrecipIn,Conditions,Clouds,dailyrainin,SoftwareType,DateUTC
2013-01-15 00:01:00,18.9,8.3,29.96,West,270,7.2,12.5,63,0.00,,,0.00,WUHU216HW,2013-01-15 07:01:00,
2013-01-15 00:06:00,18.9,8.3,29.96,NE,45,5.8,12.5,63,0.00,,,0.00,WUHU216HW,2013-01-15 07:06:00,
2013-01-15 00:11:00,18.9,8.7,29.96,SSW,203,8.1,11.9,64,0.00,,,0.00,WUHU216HW,2013-01-15 07:11:00,
2013-01-15 00:16:00,19.1,8.8,29.95,West,270,11.9,13.9,64,0.00,,,0.00,WUHU216HW,2013-01-15 07:16:00,
2013-01-15 00:21:00,19.1,8.8,29.95,SSW,203,11.6,16.3,64,0.00,,,0.00,WUHU216HW,2013-01-15 07:21:00,
2013-01-15 00:26:00,19.1,8.8,29.95,SW,225,7.2,16.3,64,0.00,,,0.00,WUHU216HW,2013-01-15 07:26:00,
2013-01-15 00:31:00,19.3,8.9,29.95,SE,135,3.8,14.5,64,0.00,,,0.00,WUHU216HW,2013-01-15 07:31:00,
2013-01-15 00:36:00,19.3,9.3,29.95,SW,225,6.5,17.2,65,0.00,,,0.00,WUHU216HW,2013-01-15 07:36:00,
2013-01-15 00:41:00,19.4,9.5,29.95,West,270,11.4,17.2,65,0.00,,,0.00,WUHU216HW,2013-01-15 07:41:00,
2013-01-15 00:46:00,19.4,9.5,29.96,WSW,248,7.4,11.4,65,0.00,,,0.00,WUHU216HW,2013-01-15 07:46:00,
2013-01-15 00:51:00,19.4,9.5,29.96,West,270,8.3,13.6,65,0.00,,,0.00,WUHU216HW,2013-01-15 07:51:00,
2013-01-15 00:56:00,19.4,9.5,29.96,SSW,203,7.6,13.6,65,0.00,,,0.00,WUHU216HW,2013-01-15 07:56:00,
2013-01-15 01:01:00,19.4,9.5,29.96,South,180,6.5,13.2,65,0.00,,,0.00,WUHU216HW,2013-01-15 08:01:00,
2013-01-15 01:06:00,19.4,9.5,29.96,SSW,203,6.3,13.2,65,0.00,,,0.00,WUHU216HW,2013-01-15 08:06:00,
2013-01-15 01:11:00,19.4,9.5,29.96,SSW,203,6.9,12.8,65,0.00,,,0.00,WUHU216HW,2013-01-15 08:11:00,
2013-01-15 01:16:00,19.4,9.5,29.96,SW,225,10.5,12.8,65,0.00,,,0.00,WUHU216HW,2013-01-15 08:16:00,
2013-01-15 01:21:00,19.4,9.5,29.95,SSE,158,10.5,10.5,65,0.00,,,0.00,WUHU216HW,2013-01-15 08:21:00,
2013-01-15 01:26:00,19.4,9.5,29.95,SSW,203,9.4,10.5,65,0.00,,,0.00,WUHU216HW,2013-01-15 08:26:00,
2013-01-15 01:31:00,19.6,9.6,29.95,SSW,203,8.7,10.5,65,0.00,,,0.00,WUHU216HW,2013-01-15 08:31:00,
2013-01-15 01:36:00,19.6,9.6,29.95,WSW,248,9.6,10.7,65,0.00,,,0.00,WUHU216HW,2013-01-15 08:36:00,
2013-01-15 01:41:00,19.6,9.6,29.95,SW,225,6.9,14.3,65,0.00,,,0.00,WUHU216HW,2013-01-15 08:41:00,
2013-01-15 01:46:00,19.8,9.8,29.95,NW,315,5.6,15.0,65,0.00,,,0.00,WUHU216HW,2013-01-15 08:46:00,
2013-01-15 01:51:00,19.8,9.8,29.95,West,270,8.7,15.0,65,0.00,,,0.00,WUHU216HW,2013-01-15 08:51:00,
2013-01-15 01:56:00,19.8,10.2,29.95,WSW,248,9.8,14.8,66,0.00,,,0.00,WUHU216HW,2013-01-15 08:56:00,
2013-01-15 02:01:00,19.8,10.2,29.95,SW,225,7.6,14.8,66,0.00,,,0.00,WUHU216HW,2013-01-15 09:01:00,
2013-01-15 02:06:00,19.8,10.2,29.95,NW,315,5.1,13.6,66,0.00,,,0.00,WUHU216HW,2013-01-15 09:06:00,
2013-01-15 02:11:00,19.8,10.2,29.96,SW,225,9.2,13.4,66,0.00,,,0.00,WUHU216HW,2013-01-15 09:11:00,
2013-01-15 02:16:00,19.8,10.5,29.95,SW,225,12.8,15.7,67,0.00,,,0.00,WUHU216HW,2013-01-15 09:16:00,
2013-01-15 02:21:00,19.8,10.8,29.95,SW,225,9.2,15.7,68,0.00,,,0.00,WUHU216HW,2013-01-15 09:21:00,
2013-01-15 02:26:00,19.8,11.2,29.95,WSW,248,9.2,15.7,69,0.00,,,0.00,WUHU216HW,2013-01-15 09:26:00,
2013-01-15 02:31:00,19.8,11.2,29.95,SW,225,9.2,15.7,69,0.00,,,0.00,WUHU216HW,2013-01-15 09:31:00,
2013-01-15 02:36:00,19.8,11.2,29.96,SSW,203,7.4,13.9,69,0.00,,,0.00,WUHU216HW,2013-01-15 09:36:00,
2013-01-15 02:41:00,19.8,11.2,29.96,SW,225,4.7,12.3,69,0.00,,,0.00,WUHU216HW,2013-01-15 09:41:00,
2013-01-15 02:46:00,20.0,11.7,29.97,SW,225,11.4,12.8,70,0.00,,,0.00,WUHU216HW,2013-01-15 09:46:00,
2013-01-15 02:51:00,20.0,11.7,29.97,WNW,293,7.6,14.8,70,0.00,,,0.00,WUHU216HW,2013-01-15 09:51:00,
2013-01-15 02:56:00,20.0,11.7,29.97,South,180,10.5,15.2,70,0.00,,,0.00,WUHU216HW,2013-01-15 09:56:00,
2013-01-15 03:01:00,20.0,11.7,29.97,WSW,248,6.9,15.2,70,0.00,,,0.00,WUHU216HW,2013-01-15 10:01:00,
2013-01-15 03:06:00,20.0,12.0,29.97,SSW,203,8.1,14.3,71,0.00,,,0.00,WUHU216HW,2013-01-15 10:06:00,
2013-01-15 03:11:00,20.0,12.0,29.97,WSW,248,10.5,12.8,71,0.00,,,0.00,WUHU216HW,2013-01-15 10:11:00,
2013-01-15 03:16:00,20.0,12.0,29.97,WSW,248,7.4,12.8,71,0.00,,,0.00,WUHU216HW,2013-01-15 10:16:00,
2013-01-15 03:21:00,20.0,12.0,29.97,SW,225,8.5,12.8,71,0.00,,,0.00,WUHU216HW,2013-01-15 10:21:00,
2013-01-15 03:26:00,19.8,11.8,29.96,WSW,248,6.3,12.8,71,0.00,,,0.00,WUHU216HW,2013-01-15 10:26:00,
2013-01-15 03:31:00,19.8,12.2,29.96,SW,225,15.2,15.2,72,0.00,,,0.00,WUHU216HW,2013-01-15 10:31:00,
2013-01-15 03:36:00,19.8,12.2,29.96,WSW,248,13.6,15.2,72,0.00,,,0.00,WUHU216HW,2013-01-15 10:36:00,
2013-01-15 03:41:00,19.8,12.2,29.97,WSW,248,6.0,13.9,72,0.00,,,0.00,WUHU216HW,2013-01-15 10:41:00,
2013-01-15 03:46:00,19.8,12.2,29.97,SSE,158,4.9,13.9,72,0.00,,,0.00,WUHU216HW,2013-01-15 10:46:00,
2013-01-15 03:51:00,19.8,12.2,29.97,WSW,248,15.7,15.7,72,0.00,,,0.00,WUHU216HW,2013-01-15 10:51:00,
2013-01-15 03:56:00,19.8,12.4,29.96,WSW,248,8.7,15.7,73,0.00,,,0.00,WUHU216HW,2013-01-15 10:56:00,
2013-01-15 04:01:00,19.8,12.2,29.96,West,270,10.3,15.9,72,0.00,,,0.00,WUHU216HW,2013-01-15 11:01:00,
2013-01-15 04:06:00,19.8,12.4,29.96,WSW,248,7.2,15.9,73,0.00,,,0.00,WUHU216HW,2013-01-15 11:06:00,
2013-01-15 04:11:00,20.0,12.6,29.96,SSW,203,10.5,14.5,73,0.00,,,0.00,WUHU216HW,2013-01-15 11:11:00,
2013-01-15 04:16:00,19.8,12.4,29.96,SSE,158,9.8,14.5,73,0.00,,,0.00,WUHU216HW,2013-01-15 11:16:00,
2013-01-15 04:21:00,19.8,12.2,29.97,SW,225,6.0,14.1,72,0.00,,,0.00,WUHU216HW,2013-01-15 11:21:00,
2013-01-15 04:26:00,19.8,12.2,29.97,West,270,17.2,17.2,72,0.00,,,0.00,WUHU216HW,2013-01-15 11:26:00,
2013-01-15 04:31:00,19.8,12.2,29.97,South,180,3.8,17.2,72,0.00,,,0.00,WUHU216HW,2013-01-15 11:31:00,
2013-01-15 04:36:00,19.8,12.4,29.96,South,180,11.6,17.2,73,0.00,,,0.00,WUHU216HW,2013-01-15 11:36:00,
2013-01-15 04:41:00,19.8,12.4,29.96,SW,225,11.9,12.1,73,0.00,,,0.00,WUHU216HW,2013-01-15 11:41:00,
2013-01-15 04:46:00,19.8,12.4,29.96,WSW,248,10.3,12.8,73,0.00,,,0.00,WUHU216HW,2013-01-15 11:46:00,
2013-01-15 04:51:00,19.8,12.4,29.95,SW,225,9.2,13.6,73,0.00,,,0.00,WUHU216HW,2013-01-15 11:51:00,
2013-01-15 04:56:00,19.8,12.8,29.95,WSW,248,10.7,13.6,74,0.00,,,0.00,WUHU216HW,2013-01-15 11:56:00,
2013-01-15 05:01:00,19.8,12.8,29.95,South,180,13.4,17.7,74,0.00,,,0.00,WUHU216HW,2013-01-15 12:01:00,
2013-01-15 05:06:00,19.8,12.8,29.95,SW,225,6.7,17.7,74,0.00,,,0.00,WUHU216HW,2013-01-15 12:06:00,
2013-01-15 05:11:00,19.8,13.1,29.95,SW,225,9.8,13.4,75,0.00,,,0.00,WUHU216HW,2013-01-15 12:11:00,
2013-01-15 05:16:00,19.8,13.1,29.95,SSW,203,13.0,14.3,75,0.00,,,0.00,WUHU216HW,2013-01-15 12:16:00,
2013-01-15 05:21:00,19.8,12.8,29.96,South,180,10.5,15.7,74,0.00,,,0.00,WUHU216HW,2013-01-15 12:21:00,
2013-01-15 05:26:00,19.8,12.8,29.96,East,90,10.5,15.7,74,0.00,,,0.00,WUHU216HW,2013-01-15 12:26:00,
2013-01-15 05:31:00,19.8,12.8,29.96,SSW,203,14.3,15.4,74,0.00,,,0.00,WUHU216HW,2013-01-15 12:31:00,
2013-01-15 05:36:00,19.8,12.8,29.97,South,180,8.9,15.4,74,0.00,,,0.00,WUHU216HW,2013-01-15 12:36:00,
2013-01-15 05:41:00,19.8,12.8,29.97,WSW,248,11.4,14.3,74,0.00,,,0.00,WUHU216HW,2013-01-15 12:41:00,
2013-01-15 05:46:00,20.0,13.0,29.98,SSW,203,6.0,14.3,74,0.00,,,0.00,WUHU216HW,2013-01-15 12:46:00,
2013-01-15 05:51:00,20.0,13.0,29.98,South,180,9.2,12.8,74,0.00,,,0.00,WUHU216HW,2013-01-15 12:51:00,
2013-01-15 05:56:00,20.0,13.0,29.98,SSW,203,5.1,9.8,74,0.00,,,0.00,WUHU216HW,2013-01-15 12:56:00,
2013-01-15 06:01:00,19.8,12.8,29.98,WSW,248,10.3,11.6,74,0.00,,,0.00,WUHU216HW,2013-01-15 13:01:00,
2013-01-15 06:06:00,19.8,12.8,29.98,SW,225,8.5,14.8,74,0.00,,,0.00,WUHU216HW,2013-01-15 13:06:00,
2013-01-15 06:11:00,19.8,12.8,29.98,WSW,248,7.2,14.8,74,0.00,,,0.00,WUHU216HW,2013-01-15 13:11:00,
2013-01-15 06:16:00,19.8,13.1,29.98,WSW,248,6.3,14.8,75,0.00,,,0.00,WUHU216HW,2013-01-15 13:16:00,
2013-01-15 06:21:00,19.8,13.1,29.98,SSE,158,6.7,10.5,75,0.00,,,0.00,WUHU216HW,2013-01-15 13:21:00,
2013-01-15 06:26:00,19.8,13.1,29.98,SE,135,14.3,14.3,75,0.00,,,0.00,WUHU216HW,2013-01-15 13:26:00,
2013-01-15 06:31:00,19.8,12.8,29.97,WSW,248,4.5,15.0,74,0.00,,,0.00,WUHU216HW,2013-01-15 13:31:00,
2013-01-15 06:36:00,19.8,12.8,29.98,SSW,203,9.2,15.7,74,0.00,,,0.00,WUHU216HW,2013-01-15 13:36:00,
2013-01-15 06:41:00,19.8,12.8,29.98,West,270,14.3,15.7,74,0.00,,,0.00,WUHU216HW,2013-01-15 13:41:00,
2013-01-15 06:46:00,19.8,12.8,29.98,West,270,11.0,15.7,74,0.00,,,0.00,WUHU216HW,2013-01-15 13:46:00,
2013-01-15 06:51:00,19.8,12.4,29.97,West,270,8.9,15.7,73,0.00,,,0.00,WUHU216HW,2013-01-15 13:51:00,
2013-01-15 06:56:00,19.8,12.4,29.98,SW,225,7.2,13.0,73,0.00,,,0.00,WUHU216HW,2013-01-15 13:56:00,
2013-01-15 07:01:00,19.8,12.4,29.97,West,270,10.5,13.4,73,0.00,,,0.00,WUHU216HW,2013-01-15 14:01:00,
2013-01-15 07:06:00,19.8,12.4,29.98,East,90,6.0,15.0,73,0.00,,,0.00,WUHU216HW,2013-01-15 14:06:00,
2013-01-15 07:11:00,19.6,12.2,29.98,WSW,248,11.4,15.2,73,0.00,,,0.00,WUHU216HW,2013-01-15 14:11:00,
2013-01-15 07:16:00,19.6,12.2,29.98,SSW,203,8.1,15.2,73,0.00,,,0.00,WUHU216HW,2013-01-15 14:16:00,
2013-01-15 07:21:00,19.8,12.4,29.99,SW,225,9.8,17.2,73,0.00,,,0.00,WUHU216HW,2013-01-15 14:21:00,
2013-01-15 07:26:00,19.8,12.2,29.99,SSE,158,2.9,17.2,72,0.00,,,0.00,WUHU216HW,2013-01-15 14:26:00,
2013-01-15 07:31:00,19.6,12.0,30.00,WSW,248,6.9,15.0,72,0.00,,,0.00,WUHU216HW,2013-01-15 14:31:00,
2013-01-15 07:36:00,19.8,12.2,30.00,SSW,203,5.4,13.6,72,0.00,,,0.00,WUHU216HW,2013-01-15 14:36:00,
2013-01-15 07:41:00,19.8,12.2,29.99,SSW,203,6.7,13.6,72,0.00,,,0.00,WUHU216HW,2013-01-15 14:41:00,
2013-01-15 07:46:00,19.8,12.2,29.99,WSW,248,9.6,11.4,72,0.00,,,0.00,WUHU216HW,2013-01-15 14:46:00,
2013-01-15 07:51:00,19.6,12.0,29.99,West,270,5.1,11.0,72,0.00,,,0.00,WUHU216HW,2013-01-15 14:51:00,
2013-01-15 07:56:00,19.6,12.0,29.99,SW,225,3.4,11.0,72,0.00,,,0.00,WUHU216HW,2013-01-15 14:56:00,
2013-01-15 08:01:00,19.8,12.2,29.99,SSW,203,15.2,15.2,72,0.00,,,0.00,WUHU216HW,2013-01-15 15:01:00,
2013-01-15 08:06:00,19.6,12.0,29.98,SSW,203,10.3,16.1,72,0.00,,,0.00,WUHU216HW,2013-01-15 15:06:00,
2013-01-15 08:11:00,19.8,12.2,29.99,SSW,203,16.6,16.6,72,0.00,,,0.00,WUHU216HW,2013-01-15 15:11:00,
2013-01-15 08:16:00,19.8,12.2,29.98,SW,225,12.1,16.6,72,0.00,,,0.00,WUHU216HW,2013-01-15 15:16:00,
2013-01-15 08:21:00,19.8,12.2,29.98,SW,225,4.0,16.6,72,0.00,,,0.00,WUHU216HW,2013-01-15 15:21:00,
2013-01-15 08:26:00,20.0,12.3,29.98,SE,135,5.4,13.0,72,0.00,,,0.00,WUHU216HW,2013-01-15 15:26:00,
2013-01-15 08:31:00,20.2,12.5,29.98,SSE,158,11.9,13.0,72,0.00,,,0.00,WUHU216HW,2013-01-15 15:31:00,
2013-01-15 08:36:00,20.5,12.9,29.98,SSW,203,9.2,11.9,72,0.00,,,0.00,WUHU216HW,2013-01-15 15:36:00,
2013-01-15 08:41:00,20.5,12.9,29.98,West,270,11.4,15.2,72,0.00,,,0.00,WUHU216HW,2013-01-15 15:41:00,
2013-01-15 08:46:00,20.7,13.1,29.98,SW,225,9.8,16.3,72,0.00,,,0.00,WUHU216HW,2013-01-15 15:46:00,
2013-01-15 08:51:00,20.9,13.2,29.98,WSW,248,8.7,16.3,72,0.00,,,0.00,WUHU216HW,2013-01-15 15:51:00,
2013-01-15 08:56:00,21.1,13.4,29.98,WSW,248,12.1,13.4,72,0.00,,,0.00,WUHU216HW,2013-01-15 15:56:00,
2013-01-15 09:01:00,21.2,13.2,29.98,WSW,248,12.8,17.2,71,0.00,,,0.00,WUHU216HW,2013-01-15 16:01:00,
2013-01-15 09:06:00,21.6,13.6,29.98,WSW,248,11.4,17.2,71,0.00,,,0.00,WUHU216HW,2013-01-15 16:06:00,
2013-01-15 09:11:00,22.0,14.0,29.98,SW,225,17.7,18.8,71,0.00,,,0.00,WUHU216HW,2013-01-15 16:11:00,
2013-01-15 09:16:00,22.1,14.1,29.98,WSW,248,13.0,18.8,71,0.00,,,0.00,WUHU216HW,2013-01-15 16:16:00,
2013-01-15 09:21:00,22.5,14.2,29.98,SSW,203,9.2,15.7,70,0.00,,,0.00,WUHU216HW,2013-01-15 16:21:00,
2013-01-15 09:26:00,22.7,14.0,29.98,WSW,248,15.4,15.7,69,0.00,,,0.00,WUHU216HW,2013-01-15 16:26:00,
2013-01-15 09:31:00,22.9,14.2,29.98,WSW,248,18.1,18.1,69,0.00,,,0.00,WUHU216HW,2013-01-15 16:31:00,
2013-01-15 09:36:00,22.7,14.0,29.98,NW,315,10.1,20.6,69,0.00,,,0.00,WUHU216HW,2013-01-15 16:36:00,
2013-01-15 09:41:00,22.9,14.2,29.99,SW,225,12.8,20.6,69,0.00,,,0.00,WUHU216HW,2013-01-15 16:41:00,
2013-01-15 09:46:00,22.9,14.2,29.99,SW,225,13.0,17.2,69,0.00,,,0.00,WUHU216HW,2013-01-15 16:46:00,
2013-01-15 09:51:00,23.0,14.4,30.00,WSW,248,18.6,18.6,69,0.00,,,0.00,WUHU216HW,2013-01-15 16:51:00,
2013-01-15 09:56:00,23.4,14.4,30.00,SE,135,10.7,18.6,68,0.00,,,0.00,WUHU216HW,2013-01-15 16:56:00,
2013-01-15 10:01:00,23.4,14.8,30.00,SSW,203,11.2,12.1,69,0.00,,,0.00,WUHU216HW,2013-01-15 17:01:00,
2013-01-15 10:06:00,23.6,14.9,30.00,WNW,293,8.1,12.8,69,0.00,,,0.00,WUHU216HW,2013-01-15 17:06:00,
2013-01-15 10:11:00,23.9,14.9,30.00,SW,225,9.2,12.8,68,0.00,,,0.00,WUHU216HW,2013-01-15 17:11:00,
2013-01-15 10:16:00,24.1,15.0,30.00,WSW,248,8.1,10.7,68,0.00,,,0.00,WUHU216HW,2013-01-15 17:16:00,
2013-01-15 10:21:00,24.3,14.9,30.00,WSW,248,10.5,10.7,67,0.00,,,0.00,WUHU216HW,2013-01-15 17:21:00,
2013-01-15 10:26:00,24.7,15.2,30.01,SSW,203,8.5,10.5,67,0.00,,,0.00,WUHU216HW,2013-01-15 17:26:00,
2013-01-15 10:31:00,24.8,15.0,30.01,South,180,14.5,14.5,66,0.00,,,0.00,WUHU216HW,2013-01-15 17:31:00,
2013-01-15 10:36:00,25.0,15.2,30.01,WSW,248,6.3,14.5,66,0.00,,,0.00,WUHU216HW,2013-01-15 17:36:00,
2013-01-15 10:41:00,25.4,15.6,30.01,WSW,248,10.5,11.6,66,0.00,,,0.00,WUHU216HW,2013-01-15 17:41:00,
2013-01-15 10:46:00,25.4,15.6,30.01,WSW,248,4.9,12.1,66,0.00,,,0.00,WUHU216HW,2013-01-15 17:46:00,
2013-01-15 10:51:00,25.6,15.7,30.02,WNW,293,14.1,14.1,66,0.00,,,0.00,WUHU216HW,2013-01-15 17:51:00,
2013-01-15 10:56:00,25.7,15.8,30.02,SE,135,5.6,14.1,66,0.00,,,0.00,WUHU216HW,2013-01-15 17:56:00,
2013-01-15 11:01:00,25.9,16.0,30.01,WSW,248,7.4,11.9,66,0.00,,,0.00,WUHU216HW,2013-01-15 18:01:00,
2013-01-15 11:06:00,26.3,16.4,30.01,West,270,11.6,13.2,66,0.00,,,0.00,WUHU216HW,2013-01-15 18:06:00,
2013-01-15 11:11:00,26.6,16.4,30.01,SSW,203,8.7,13.2,65,0.00,,,0.00,WUHU216HW,2013-01-15 18:11:00,
2013-01-15 11:16:00,27.0,16.7,30.01,ESE,113,6.3,10.5,65,0.00,,,0.00,WUHU216HW,2013-01-15 18:16:00,
2013-01-15 11:21:00,27.2,16.6,30.01,ESE,113,9.8,10.5,64,0.00,,,0.00,WUHU216HW,2013-01-15 18:21:00,
2013-01-15 11:26:00,27.4,16.7,30.01,West,270,5.6,12.8,64,0.00,,,0.00,WUHU216HW,2013-01-15 18:26:00,
2013-01-15 11:31:00,27.5,16.6,30.01,SW,225,10.1,16.1,63,0.00,,,0.00,WUHU216HW,2013-01-15 18:31:00,
2013-01-15 11:36:00,27.7,16.7,30.01,SSW,203,10.3,16.1,63,0.00,,,0.00,WUHU216HW,2013-01-15 18:36:00,
2013-01-15 11:41:00,27.7,16.7,30.02,WSW,248,12.8,14.1,63,0.00,,,0.00,WUHU216HW,2013-01-15 18:41:00,
2013-01-15 11:46:00,27.7,16.7,30.02,SW,225,8.9,12.8,63,0.00,,,0.00,WUHU216HW,2013-01-15 18:46:00,
2013-01-15 11:51:00,27.9,16.9,30.02,SSE,158,5.1,14.5,63,0.00,,,0.00,WUHU216HW,2013-01-15 18:51:00,
2013-01-15 11:56:00,28.1,17.1,30.03,SW,225,10.5,14.5,63,0.00,,,0.00,WUHU216HW,2013-01-15 18:56:00,
2013-01-15 12:01:00,28.4,17.1,30.02,West,270,10.5,10.5,62,0.00,,,0.00,WUHU216HW,2013-01-15 19:01:00,
2013-01-15 12:06:00,28.8,17.5,30.02,SW,225,12.3,12.3,62,0.00,,,0.00,WUHU216HW,2013-01-15 19:06:00,
2013-01-15 12:11:00,29.2,17.7,30.01,West,270,6.9,12.3,62,0.00,,,0.00,WUHU216HW,2013-01-15 19:11:00,
2013-01-15 12:16:00,29.0,17.6,30.01,SSW,203,6.3,12.8,62,0.00,,,0.00,WUHU216HW,2013-01-15 19:16:00,
2013-01-15 12:21:00,29.2,17.7,30.01,WSW,248,11.4,13.2,62,0.00,,,0.00,WUHU216HW,2013-01-15 19:21:00,
2013-01-15 12:26:00,29.3,17.9,30.01,ESE,113,9.4,14.3,62,0.00,,,0.00,WUHU216HW,2013-01-15 19:26:00,
2013-01-15 12:31:00,29.5,18.1,30.02,WSW,248,12.3,14.3,62,0.00,,,0.00,WUHU216HW,2013-01-15 19:31:00,
2013-01-15 12:36:00,29.9,18.4,30.01,SW,225,6.9,13.0,62,0.00,,,0.00,WUHU216HW,2013-01-15 19:36:00,
2013-01-15 12:41:00,29.9,18.0,30.01,East,90,5.4,15.0,61,0.00,,,0.00,WUHU216HW,2013-01-15 19:41:00,
2013-01-15 12:46:00,30.1,18.2,30.00,SW,225,10.5,15.0,61,0.00,,,0.00,WUHU216HW,2013-01-15 19:46:00,
2013-01-15 12:51:00,30.2,18.4,30.00,WNW,293,5.8,17.9,61,0.00,,,0.00,WUHU216HW,2013-01-15 19:51:00,
2013-01-15 12:56:00,30.4,18.5,30.00,SSW,203,14.3,17.9,61,0.00,,,0.00,WUHU216HW,2013-01-15 19:56:00,
2013-01-15 13:01:00,30.6,18.4,30.00,SW,225,12.1,14.8,60,0.00,,,0.00,WUHU216HW,2013-01-15 20:01:00,
2013-01-15 13:06:00,31.0,18.7,30.00,WNW,293,9.2,12.1,60,0.00,,,0.00,WUHU216HW,2013-01-15 20:06:00,
2013-01-15 13:11:00,31.0,18.7,30.00,WSW,248,11.0,12.8,60,0.00,,,0.00,WUHU216HW,2013-01-15 20:11:00,
2013-01-15 13:16:00,31.3,19.1,29.99,SSE,158,8.9,12.8,60,0.00,,,0.00,WUHU216HW,2013-01-15 20:16:00,
2013-01-15 13:21:00,31.7,19.4,29.99,NE,45,6.3,12.3,60,0.00,,,0.00,WUHU216HW,2013-01-15 20:21:00,
2013-01-15 13:26:00,32.0,19.4,29.98,WSW,248,5.6,8.5,59,0.00,,,0.00,WUHU216HW,2013-01-15 20:26:00,
2013-01-15 13:31:00,32.0,19.4,29.98,WSW,248,8.7,10.5,59,0.00,,,0.00,WUHU216HW,2013-01-15 20:31:00,
2013-01-15 13:36:00,32.2,19.5,29.99,SW,225,8.5,10.5,59,0.00,,,0.00,WUHU216HW,2013-01-15 20:36:00,
2013-01-15 13:41:00,32.4,19.7,30.00,WSW,248,8.9,8.9,59,0.00,,,0.00,WUHU216HW,2013-01-15 20:41:00,
2013-01-15 13:46:00,32.4,19.3,29.99,WSW,248,6.5,8.9,58,0.00,,,0.00,WUHU216HW,2013-01-15 20:46:00,
2013-01-15 13:51:00,32.4,19.7,30.00,SSE,158,8.3,8.5,59,0.00,,,0.00,WUHU216HW,2013-01-15 20:51:00,
2013-01-15 13:56:00,32.0,18.9,30.00,WSW,248,4.9,13.6,58,0.00,,,0.00,WUHU216HW,2013-01-15 20:56:00,
2013-01-15 14:01:00,32.0,19.4,30.00,WNW,293,5.4,13.6,59,0.00,,,0.00,WUHU216HW,2013-01-15 21:01:00,
2013-01-15 14:06:00,32.0,19.4,30.00,ESE,113,4.7,9.2,59,0.00,,,0.00,WUHU216HW,2013-01-15 21:06:00,
2013-01-15 14:11:00,32.0,19.4,30.01,SW,225,4.3,9.2,59,0.00,,,0.00,WUHU216HW,2013-01-15 21:11:00,
2013-01-15 14:16:00,31.9,19.2,30.01,SW,225,4.3,9.2,59,0.00,,,0.00,WUHU216HW,2013-01-15 21:16:00,
2013-01-15 14:21:00,31.9,19.2,30.01,WSW,248,6.9,9.4,59,0.00,,,0.00,WUHU216HW,2013-01-15 21:21:00,
2013-01-15 14:26:00,31.9,19.2,30.02,NNW,338,5.4,9.4,59,0.00,,,0.00,WUHU216HW,2013-01-15 21:26:00,
2013-01-15 14:31:00,31.9,19.2,30.03,WSW,248,6.9,11.0,59,0.00,,,0.00,WUHU216HW,2013-01-15 21:31:00,
2013-01-15 14:36:00,31.9,19.2,30.02,SW,225,5.8,11.0,59,0.00,,,0.00,WUHU216HW,2013-01-15 21:36:00,
2013-01-15 14:41:00,31.9,19.2,30.03,South,180,9.8,11.2,59,0.00,,,0.00,WUHU216HW,2013-01-15 21:41:00,
2013-01-15 14:46:00,31.7,19.0,30.03,SW,225,9.6,11.2,59,0.00,,,0.00,WUHU216HW,2013-01-15 21:46:00,
2013-01-15 14:51:00,31.7,18.5,30.03,South,180,9.4,10.5,58,0.00,,,0.00,WUHU216HW,2013-01-15 21:51:00,
2013-01-15 14:56:00,31.3,18.3,30.03,SSE,158,4.7,11.2,58,0.00,,,0.00,WUHU216HW,2013-01-15 21:56:00,
2013-01-15 15:01:00,31.1,18.5,30.04,SSW,203,5.6,13.0,59,0.00,,,0.00,WUHU216HW,2013-01-15 22:01:00,
2013-01-15 15:06:00,31.0,18.3,30.03,SW,225,8.1,13.0,59,0.00,,,0.00,WUHU216HW,2013-01-15 22:06:00,
2013-01-15 15:11:00,31.0,18.7,30.03,WSW,248,7.2,13.2,60,0.00,,,0.00,WUHU216HW,2013-01-15 22:11:00,
2013-01-15 15:16:00,31.0,18.7,30.03,SSW,203,5.1,13.2,60,0.00,,,0.00,WUHU216HW,2013-01-15 22:16:00,
2013-01-15 15:21:00,31.0,18.7,30.03,SSW,203,5.8,10.7,60,0.00,,,0.00,WUHU216HW,2013-01-15 22:21:00,
2013-01-15 15:26:00,31.0,18.7,30.03,SSW,203,10.5,11.4,60,0.00,,,0.00,WUHU216HW,2013-01-15 22:26:00,
2013-01-15 15:31:00,30.8,18.5,30.03,WSW,248,7.6,11.4,60,0.00,,,0.00,WUHU216HW,2013-01-15 22:31:00,
2013-01-15 15:36:00,30.8,18.5,30.03,WSW,248,5.8,11.0,60,0.00,,,0.00,WUHU216HW,2013-01-15 22:36:00,
2013-01-15 15:41:00,30.6,18.4,30.03,SW,225,6.7,10.5,60,0.00,,,0.00,WUHU216HW,2013-01-15 22:41:00,
2013-01-15 15:46:00,30.6,18.4,30.03,NNW,338,9.2,11.9,60,0.00,,,0.00,WUHU216HW,2013-01-15 22:46:00,
2013-01-15 15:51:00,30.4,18.5,30.03,WSW,248,6.5,11.9,61,0.00,,,0.00,WUHU216HW,2013-01-15 22:51:00,
2013-01-15 15:56:00,30.2,18.4,30.03,SW,225,7.6,12.1,61,0.00,,,0.00,WUHU216HW,2013-01-15 22:56:00,
2013-01-15 16:01:00,30.1,18.2,30.03,West,270,6.9,12.1,61,0.00,,,0.00,WUHU216HW,2013-01-15 23:01:00,
2013-01-15 16:06:00,29.9,18.0,30.03,WSW,248,5.4,12.3,61,0.00,,,0.00,WUHU216HW,2013-01-15 23:06:00,
2013-01-15 16:11:00,29.9,18.4,30.03,SE,135,9.6,12.5,62,0.00,,,0.00,WUHU216HW,2013-01-15 23:11:00,
2013-01-15 16:16:00,29.7,18.3,30.03,SW,225,6.3,13.2,62,0.00,,,0.00,WUHU216HW,2013-01-15 23:16:00,
2013-01-15 16:21:00,29.5,18.1,30.03,SSW,203,8.1,13.2,62,0.00,,,0.00,WUHU216HW,2013-01-15 23:21:00,
2013-01-15 16:26:00,29.3,17.9,30.03,ESE,113,4.3,12.8,62,0.00,,,0.00,WUHU216HW,2013-01-15 23:26:00,
2013-01-15 16:31:00,29.2,17.7,30.04,ESE,113,7.2,13.6,62,0.00,,,0.00,WUHU216HW,2013-01-15 23:31:00,
2013-01-15 16:36:00,29.2,17.7,30.03,SSW,203,9.8,13.6,62,0.00,,,0.00,WUHU216HW,2013-01-15 23:36:00,
2013-01-15 16:41:00,29.0,17.6,30.04,ESE,113,11.4,12.8,62,0.00,,,0.00,WUHU216HW,2013-01-15 23:41:00,
2013-01-15 16:46:00,28.8,17.5,30.04,SSE,158,9.8,12.8,62,0.00,,,0.00,WUHU216HW,2013-01-15 23:46:00,
2013-01-15 16:51:00,28.6,17.3,30.04,SW,225,7.4,11.4,62,0.00,,,0.00,WUHU216HW,2013-01-15 23:51:00,
2013-01-15 16:56:00,28.4,17.1,30.05,WSW,248,6.7,9.2,62,0.00,,,0.00,WUHU216HW,2013-01-15 23:56:00,
2013-01-15 17:01:00,28.4,17.1,30.05,SW,225,7.4,11.4,62,0.00,,,0.00,WUHU216HW,2013-01-16 00:01:00,
2013-01-15 17:06:00,28.4,17.1,30.05,SSW,203,8.7,13.6,62,0.00,,,0.00,WUHU216HW,2013-01-16 00:06:00,
2013-01-15 17:11:00,28.3,16.9,30.04,SSW,203,8.5,13.6,62,0.00,,,0.00,WUHU216HW,2013-01-16 00:11:00,
2013-01-15 17:16:00,28.1,16.7,30.05,SW,225,4.5,11.6,62,0.00,,,0.00,WUHU216HW,2013-01-16 00:16:00,
2013-01-15 17:21:00,28.1,16.7,30.05,SSE,158,5.1,13.2,62,0.00,,,0.00,WUHU216HW,2013-01-16 00:21:00,
2013-01-15 17:26:00,28.1,16.7,30.05,SSW,203,4.0,13.2,62,0.00,,,0.00,WUHU216HW,2013-01-16 00:26:00,
2013-01-15 17:31:00,27.9,16.6,30.05,SSE,158,5.6,9.6,62,0.00,,,0.00,WUHU216HW,2013-01-16 00:31:00,
2013-01-15 17:36:00,27.9,16.6,30.05,WSW,248,9.6,9.6,62,0.00,,,0.00,WUHU216HW,2013-01-16 00:36:00,
2013-01-15 17:41:00,27.7,16.4,30.05,SSW,203,5.1,13.6,62,0.00,,,0.00,WUHU216HW,2013-01-16 00:41:00,
2013-01-15 17:46:00,27.7,16.7,30.05,SW,225,9.2,13.6,63,0.00,,,0.00,WUHU216HW,2013-01-16 00:46:00,
2013-01-15 17:51:00,27.7,16.7,30.05,SW,225,7.2,14.3,63,0.00,,,0.00,WUHU216HW,2013-01-16 00:51:00,
2013-01-15 17:56:00,27.7,16.7,30.05,SW,225,8.9,14.3,63,0.00,,,0.00,WUHU216HW,2013-01-16 00:56:00,
2013-01-15 18:01:00,27.7,16.7,30.05,SSE,158,6.0,11.4,63,0.00,,,0.00,WUHU216HW,2013-01-16 01:01:00,
2013-01-15 18:06:00,27.7,16.7,30.05,WSW,248,4.9,13.2,63,0.00,,,0.00,WUHU216HW,2013-01-16 01:06:00,
2013-01-15 18:11:00,27.7,16.7,30.05,SW,225,11.4,13.2,63,0.00,,,0.00,WUHU216HW,2013-01-16 01:11:00,
2013-01-15 18:16:00,27.7,16.7,30.05,SSW,203,6.3,11.4,63,0.00,,,0.00,WUHU216HW,2013-01-16 01:16:00,
2013-01-15 18:21:00,27.7,16.7,30.05,WSW,248,8.7,11.0,63,0.00,,,0.00,WUHU216HW,2013-01-16 01:21:00,
2013-01-15 18:26:00,27.7,16.7,30.05,West,270,6.9,11.0,63,0.00,,,0.00,WUHU216HW,2013-01-16 01:26:00,
2013-01-15 18:31:00,27.7,16.7,30.06,SSE,158,11.4,11.4,63,0.00,,,0.00,WUHU216HW,2013-01-16 01:31:00,
2013-01-15 18:36:00,27.7,16.7,30.06,WSW,248,6.9,11.4,63,0.00,,,0.00,WUHU216HW,2013-01-16 01:36:00,
2013-01-15 18:41:00,27.5,16.6,30.06,SSW,203,5.8,13.4,63,0.00,,,0.00,WUHU216HW,2013-01-16 01:41:00,
2013-01-15 18:46:00,27.5,16.9,30.06,South,180,7.6,13.4,64,0.00,,,0.00,WUHU216HW,2013-01-16 01:46:00,
2013-01-15 18:51:00,27.5,16.9,30.06,WSW,248,12.8,13.9,64,0.00,,,0.00,WUHU216HW,2013-01-16 01:51:00,
2013-01-15 18:56:00,27.5,16.9,30.06,WSW,248,7.6,13.9,64,0.00,,,0.00,WUHU216HW,2013-01-16 01:56:00,
2013-01-15 19:01:00,27.7,17.1,30.06,SSW,203,10.3,10.7,64,0.00,,,0.00,WUHU216HW,2013-01-16 02:01:00,
2013-01-15 19:06:00,27.7,17.1,30.06,SSW,203,7.4,11.4,64,0.00,,,0.00,WUHU216HW,2013-01-16 02:06:00,
2013-01-15 19:11:00,27.7,17.1,30.07,South,180,6.5,12.8,64,0.00,,,0.00,WUHU216HW,2013-01-16 02:11:00,
2013-01-15 19:16:00,27.7,16.7,30.06,SW,225,4.5,13.4,63,0.00,,,0.00,WUHU216HW,2013-01-16 02:16:00,
2013-01-15 19:21:00,27.7,17.1,30.06,SW,225,5.4,13.4,64,0.00,,,0.00,WUHU216HW,2013-01-16 02:21:00,
2013-01-15 19:26:00,27.7,16.7,30.06,West,270,7.4,10.3,63,0.00,,,0.00,WUHU216HW,2013-01-16 02:26:00,
2013-01-15 19:31:00,27.7,16.7,30.06,SSW,203,12.1,12.1,63,0.00,,,0.00,WUHU216HW,2013-01-16 02:31:00,
2013-01-15 19:36:00,27.7,16.7,30.05,SSW,203,5.6,12.1,63,0.00,,,0.00,WUHU216HW,2013-01-16 02:36:00,
2013-01-15 19:41:00,27.7,16.7,30.05,WSW,248,7.8,8.9,63,0.00,,,0.00,WUHU216HW,2013-01-16 02:41:00,
2013-01-15 19:46:00,27.7,16.7,30.06,SW,225,4.3,8.9,63,0.00,,,0.00,WUHU216HW,2013-01-16 02:46:00,
2013-01-15 19:51:00,27.5,16.9,30.06,SSW,203,4.7,7.4,64,0.00,,,0.00,WUHU216HW,2013-01-16 02:51:00,
2013-01-15 19:56:00,27.5,16.9,30.06,WSW,248,4.7,8.1,64,0.00,,,0.00,WUHU216HW,2013-01-16 02:56:00,
2013-01-15 20:01:00,27.5,16.9,30.06,SW,225,6.7,11.2,64,0.00,,,0.00,WUHU216HW,2013-01-16 03:01:00,
2013-01-15 20:06:00,27.5,16.9,30.06,SSE,158,5.4,11.2,64,0.00,,,0.00,WUHU216HW,2013-01-16 03:06:00,
2013-01-15 20:11:00,27.5,16.9,30.06,South,180,8.1,8.1,64,0.00,,,0.00,WUHU216HW,2013-01-16 03:11:00,
2013-01-15 20:16:00,27.5,16.9,30.06,WSW,248,2.5,8.1,64,0.00,,,0.00,WUHU216HW,2013-01-16 03:16:00,
2013-01-15 20:21:00,27.5,16.9,30.05,SSE,158,5.8,9.8,64,0.00,,,0.00,WUHU216HW,2013-01-16 03:21:00,
2013-01-15 20:26:00,27.5,17.3,30.06,SSW,203,6.0,9.8,65,0.00,,,0.00,WUHU216HW,2013-01-16 03:26:00,
2013-01-15 20:31:00,27.5,17.3,30.05,SSE,158,3.4,7.2,65,0.00,,,0.00,WUHU216HW,2013-01-16 03:31:00,
2013-01-15 20:36:00,27.5,17.3,30.05,South,180,3.8,7.2,65,0.00,,,0.00,WUHU216HW,2013-01-16 03:36:00,
2013-01-15 20:41:00,27.5,17.3,30.06,SW,225,6.3,6.9,65,0.00,,,0.00,WUHU216HW,2013-01-16 03:41:00,
2013-01-15 20:46:00,27.5,17.3,30.06,SSW,203,2.9,7.6,65,0.00,,,0.00,WUHU216HW,2013-01-16 03:46:00,
2013-01-15 20:51:00,27.7,17.8,30.06,SSW,203,8.3,8.3,66,0.00,,,0.00,WUHU216HW,2013-01-16 03:51:00,
2013-01-15 20:56:00,27.7,17.5,30.06,NNW,338,4.0,8.3,65,0.00,,,0.00,WUHU216HW,2013-01-16 03:56:00,
2013-01-15 21:01:00,27.5,17.3,30.06,SW,225,4.7,6.9,65,0.00,,,0.00,WUHU216HW,2013-01-16 04:01:00,
2013-01-15 21:06:00,27.2,16.6,30.06,SSE,158,4.0,6.9,64,0.00,,,0.00,WUHU216HW,2013-01-16 04:06:00,
2013-01-15 21:11:00,27.0,16.4,30.06,SSE,158,5.8,5.8,64,0.00,,,0.00,WUHU216HW,2013-01-16 04:11:00,
2013-01-15 21:16:00,26.8,16.2,30.06,SSW,203,6.3,6.5,64,0.00,,,0.00,WUHU216HW,2013-01-16 04:16:00,
2013-01-15 21:21:00,26.6,16.0,30.06,SSW,203,5.4,6.5,64,0.00,,,0.00,WUHU216HW,2013-01-16 04:21:00,
2013-01-15 21:26:00,26.5,15.8,30.05,SSW,203,8.3,8.9,64,0.00,,,0.00,WUHU216HW,2013-01-16 04:26:00,
2013-01-15 21:31:00,26.5,15.8,30.05,SW,225,6.3,8.9,64,0.00,,,0.00,WUHU216HW,2013-01-16 04:31:00,
2013-01-15 21:36:00,26.5,16.2,30.05,SE,135,7.6,8.5,65,0.00,,,0.00,WUHU216HW,2013-01-16 04:36:00,
2013-01-15 21:41:00,26.5,16.2,30.05,SSE,158,6.0,9.2,65,0.00,,,0.00,WUHU216HW,2013-01-16 04:41:00,
2013-01-15 21:46:00,26.5,16.2,30.06,SE,135,4.0,9.2,65,0.00,,,0.00,WUHU216HW,2013-01-16 04:46:00,
2013-01-15 21:51:00,26.6,16.4,30.06,SSW,203,6.0,8.3,65,0.00,,,0.00,WUHU216HW,2013-01-16 04:51:00,
2013-01-15 21:56:00,26.6,16.4,30.06,South,180,2.9,8.1,65,0.00,,,0.00,WUHU216HW,2013-01-16 04:56:00,
2013-01-15 22:00:00,26.8,16.6,30.05,SSE,158,5.6,6.0,65,0.00,,,0.00,WUHU216HW,2013-01-16 05:00:00,
2013-01-15 22:03:00,26.8,16.6,30.05,SSW,203,5.4,6.3,65,0.00,,,0.00,WUHU216HW,2013-01-16 05:03:00,
2013-01-15 22:08:00,27.0,16.7,30.05,SSE,158,5.6,6.3,65,0.00,,,0.00,WUHU216HW,2013-01-16 05:08:00,
2013-01-15 22:13:00,27.0,16.7,30.05,SW,225,4.7,6.3,65,0.00,,,0.00,WUHU216HW,2013-01-16 05:13:00,
2013-01-15 22:18:00,27.0,16.7,30.05,SSE,158,4.5,6.5,65,0.00,,,0.00,WUHU216HW,2013-01-16 05:18:00,
2013-01-15 22:23:00,27.2,16.9,30.06,SSE,158,3.6,7.6,65,0.00,,,0.00,WUHU216HW,2013-01-16 05:23:00,
2013-01-15 22:28:00,27.2,16.9,30.06,SSE,158,3.4,7.6,65,0.00,,,0.00,WUHU216HW,2013-01-16 05:28:00,
2013-01-15 22:33:00,27.0,16.7,30.06,SE,135,5.1,6.0,65,0.00,,,0.00,WUHU216HW,2013-01-16 05:33:00,
2013-01-15 22:38:00,27.0,16.7,30.06,South,180,4.3,7.6,65,0.00,,,0.00,WUHU216HW,2013-01-16 05:38:00,
2013-01-15 22:43:00,27.0,16.7,30.07,South,180,2.9,7.6,65,0.00,,,0.00,WUHU216HW,2013-01-16 05:43:00,
2013-01-15 22:48:00,27.0,16.4,30.08,South,180,2.0,6.7,64,0.00,,,0.00,WUHU216HW,2013-01-16 05:48:00,
2013-01-15 22:53:00,26.8,16.2,30.08,SSE,158,6.9,6.9,64,0.00,,,0.00,WUHU216HW,2013-01-16 05:53:00,
2013-01-15 22:58:00,26.6,16.0,30.08,SSE,158,2.5,7.2,64,0.00,,,0.00,WUHU216HW,2013-01-16 05:58:00,
2013-01-15 23:03:00,26.5,15.8,30.08,SSE,158,7.6,7.6,64,0.00,,,0.00,WUHU216HW,2013-01-16 06:03:00,
2013-01-15 23:08:00,26.5,16.2,30.07,SSW,203,5.8,7.6,65,0.00,,,0.00,WUHU216HW,2013-01-16 06:08:00,
2013-01-15 23:13:00,26.3,16.0,30.07,SSW,203,4.0,8.3,65,0.00,,,0.00,WUHU216HW,2013-01-16 06:13:00,
2013-01-15 23:18:00,26.3,16.0,30.06,West,270,4.0,8.3,65,0.00,,,0.00,WUHU216HW,2013-01-16 06:18:00,
2013-01-15 23:23:00,26.3,16.0,30.06,SSW,203,6.7,6.7,65,0.00,,,0.00,WUHU216HW,2013-01-16 06:23:00,
2013-01-15 23:28:00,26.3,16.0,30.05,WSW,248,6.9,8.5,65,0.00,,,0.00,WUHU216HW,2013-01-16 06:28:00,
2013-01-15 23:33:00,26.3,16.0,30.05,SW,225,4.7,13.6,65,0.00,,,0.00,WUHU216HW,2013-01-16 06:33:00,
2013-01-15 23:38:00,26.3,16.0,30.05,WSW,248,7.6,13.6,65,0.00,,,0.00,WUHU216HW,2013-01-16 06:38:00,
2013-01-15 23:43:00,26.3,16.0,30.05,SW,225,2.9,9.8,65,0.00,,,0.00,WUHU216HW,2013-01-16 06:43:00,
2013-01-15 23:48:00,26.3,16.0,30.05,ESE,113,3.6,6.9,65,0.00,,,0.00,WUHU216HW,2013-01-16 06:48:00,
2013-01-15 23:53:00,26.1,15.8,30.05,SSW,203,4.7,5.8,65,0.00,,,0.00,WUHU216HW,2013-01-16 06:53:00,
2013-01-15 23:58:00,25.9,15.7,30.05,WSW,248,6.9,6.9,65,0.00,,,0.00,WUHU216HW,2013-01-16 06:58:00,